• In Hungary
  • List of Countries
  • For 7 days
  • Water Temperature
  • Satellite Maps
  • Weather Map
  • News
  • Weather Widgets
  • user-avatar
    Login

    Hourly Weather Budowo

    Today, 21 October, Sunday

    Time Temperature Precipitation Wind Pressure Humidity
    00:00 +8°C° 0 mm 1 mps 758 mmHg 94%
    01:00 +8°C° 0 mm 1 mps 758 mmHg 94%
    02:00 +8°C° 0 mm 1 mps 758 mmHg 94%
    03:00 +8°C° 0 mm 1 mps 758 mmHg 94%
    04:00 +8°C° 0 mm 1 mps 758 mmHg 94%
    05:00 +8°C° 0 mm 1 mps 759 mmHg 94%
    06:00 +8°C° 0 mm 1 mps 759 mmHg 94%
    07:00 +8°C° 0 mm 1 mps 759 mmHg 94%
    08:00 +8°C° 0 mm 2 mps 760 mmHg 88%
    09:00 +10°C° 0 mm 2 mps 760 mmHg 81%
    10:00 +13°C° 0 mm 2 mps 760 mmHg 75%
    11:00 +13°C° 0 mm 2 mps 760 mmHg 70%
    12:00 +13°C° 0 mm 3 mps 760 mmHg 65%
    13:00 +14°C° 0 mm 3 mps 760 mmHg 61%
    14:00 +13°C° 0 mm 3 mps 760 mmHg 64%
    15:00 +12°C° 0 mm 3 mps 759 mmHg 67%
    16:00 +13°C° 0 mm 2 mps 759 mmHg 69%
    17:00 +11°C° 0 mm 3 mps 759 mmHg 74%
    18:00 +10°C° 0 mm 3 mps 759 mmHg 78%
    19:00 +9°C° 0 mm 3 mps 759 mmHg 83%
    20:00 +9°C° 0 mm 3 mps 759 mmHg 83%
    21:00 +8°C° 0 mm 3 mps 759 mmHg 83%
    22:00 +7°C° 0 mm 4 mps 758 mmHg 84%
    23:00 +7°C° 0 mm 4 mps 758 mmHg 83%

    Tomorrow, 22 October, Monday

    Time Temperature Precipitation Wind Pressure Humidity
    00:00 +7°C° 0 mm 4 mps 758 mmHg 82%
    01:00 +7°C° 0 mm 4 mps 758 mmHg 82%
    02:00 +6°C° 0 mm 5 mps 757 mmHg 82%
    03:00 +6°C° 0 mm 5 mps 757 mmHg 83%
    04:00 +6°C° 0 mm 5 mps 757 mmHg 83%
    05:00 +6°C° 0 mm 5 mps 757 mmHg 83%
    06:00 +7°C° 0 mm 5 mps 756 mmHg 83%
    07:00 +7°C° 0 mm 5 mps 756 mmHg 83%
    08:00 +7°C° 0.2 mm 5 mps 756 mmHg 84%
    09:00 +8°C° 0.2 mm 5 mps 756 mmHg 84%
    10:00 +8°C° 0.2 mm 5 mps 756 mmHg 85%
    11:00 +8°C° 0.3 mm 5 mps 756 mmHg 86%
    12:00 +8°C° 0.3 mm 5 mps 756 mmHg 86%
    13:00 +9°C° 0.3 mm 5 mps 756 mmHg 87%
    14:00 +9°C° 0.1 mm 5 mps 756 mmHg 81%
    15:00 +9°C° 0.1 mm 5 mps 756 mmHg 76%
    16:00 +8°C° 0.1 mm 5 mps 757 mmHg 71%
    17:00 +8°C° 0 mm 5 mps 757 mmHg 71%
    18:00 +7°C° 0 mm 5 mps 757 mmHg 72%
    19:00 +6°C° 0 mm 5 mps 757 mmHg 73%
    20:00 +6°C° 0 mm 4 mps 757 mmHg 74%
    21:00 +6°C° 0 mm 4 mps 757 mmHg 74%
    22:00 +6°C° 0 mm 4 mps 758 mmHg 75%
    23:00 +5°C° 0 mm 4 mps 757 mmHg 77%

    Day after tomorrow, 23 October, Tuesday

    Time Temperature Precipitation Wind Pressure Humidity
    00:00 +5°C° 0 mm 4 mps 757 mmHg 79%
    01:00 +5°C° 0 mm 4 mps 757 mmHg 81%
    02:00 +5°C° 0 mm 5 mps 756 mmHg 80%
    03:00 +5°C° 0 mm 5 mps 755 mmHg 79%
    04:00 +5°C° 0 mm 6 mps 754 mmHg 78%
    05:00 +5°C° 0.3 mm 7 mps 753 mmHg 78%
    06:00 +5°C° 0.3 mm 8 mps 752 mmHg 79%
    07:00 +5°C° 0.3 mm 9 mps 750 mmHg 79%
    08:00 +5°C° 0.7 mm 10 mps 749 mmHg 80%
    09:00 +4°C° 0.7 mm 11 mps 748 mmHg 80%
    10:00 +6°C° 0.7 mm 11 mps 746 mmHg 80%
    11:00 +6°C° 1.9 mm 11 mps 745 mmHg 81%
    12:00 +7°C° 1.9 mm 11 mps 744 mmHg 83%
    13:00 +7°C° 1.9 mm 11 mps 742 mmHg 85%
    14:00 +8°C° 3.2 mm 11 mps 741 mmHg 85%
    15:00 +8°C° 3.2 mm 11 mps 739 mmHg 86%
    16:00 +8°C° 3.2 mm 11 mps 738 mmHg 87%
    17:00 +8°C° 1.9 mm 11 mps 737 mmHg 85%
    18:00 +8°C° 1.9 mm 10 mps 737 mmHg 83%
    19:00 +9°C° 1.9 mm 10 mps 736 mmHg 80%
    20:00 +8°C° 0.4 mm 10 mps 736 mmHg 77%
    21:00 +8°C° 0.4 mm 9 mps 736 mmHg 74%
    22:00 +7°C° 0.4 mm 9 mps 737 mmHg 70%
    23:00 +7°C° 0.4 mm 9 mps 737 mmHg 72%

    24 October, Wednesday

    Time Temperature Precipitation Wind Pressure Humidity
    00:00 +6°C° 0.4 mm 9 mps 738 mmHg 73%
    01:00 +5°C° 0.4 mm 10 mps 738 mmHg 75%
    02:00 +5°C° 0.1 mm 9 mps 739 mmHg 69%
    03:00 +3°C° 0.1 mm 9 mps 740 mmHg 62%
    04:00 +3°C° 0.1 mm 9 mps 740 mmHg 56%
    05:00 +2°C° 0 mm 9 mps 741 mmHg 57%
    06:00 +2°C° 0 mm 9 mps 741 mmHg 58%
    07:00 +2°C° 0 mm 9 mps 742 mmHg 59%
    08:00 +2°C° 0 mm 9 mps 742 mmHg 57%
    09:00 +3°C° 0 mm 10 mps 743 mmHg 55%
    10:00 +5°C° 0 mm 10 mps 744 mmHg 52%
    11:00 +5°C° 0 mm 10 mps 744 mmHg 52%
    12:00 +5°C° 0 mm 10 mps 744 mmHg 52%
    13:00 +5°C° 0 mm 10 mps 745 mmHg 52%
    14:00 +5°C° 0 mm 9 mps 745 mmHg 53%
    15:00 +5°C° 0 mm 9 mps 745 mmHg 55%
    16:00 +5°C° 0 mm 8 mps 746 mmHg 56%
    17:00 +4°C° 0 mm 8 mps 746 mmHg 58%
    18:00 +4°C° 0 mm 8 mps 747 mmHg 59%
    19:00 +4°C° 0 mm 7 mps 747 mmHg 61%
    20:00 +4°C° 0 mm 7 mps 747 mmHg 62%
    21:00 +4°C° 0 mm 6 mps 748 mmHg 62%
    22:00 +3°C° 0 mm 6 mps 748 mmHg 63%
    23:00 +3°C° 0 mm 6 mps 748 mmHg 64%

    25 October, Thursday

    Time Temperature Precipitation Wind Pressure Humidity
    00:00 +3°C° 0 mm 5 mps 748 mmHg 64%
    01:00 +3°C° 0 mm 5 mps 748 mmHg 64%
    02:00 +3°C° 0 mm 5 mps 748 mmHg 64%
    03:00 +3°C° 0 mm 5 mps 748 mmHg 63%
    04:00 +3°C° 0 mm 5 mps 747 mmHg 63%
    05:00 +3°C° 0.2 mm 5 mps 747 mmHg 69%
    06:00 +5°C° 0.2 mm 5 mps 746 mmHg 76%
    07:00 +5°C° 0.2 mm 5 mps 745 mmHg 82%
    08:00 +5°C° 0.6 mm 6 mps 745 mmHg 83%
    09:00 +8°C° 0.6 mm 7 mps 744 mmHg 84%
    10:00 +9°C° 0.6 mm 8 mps 743 mmHg 85%
    11:00 +8°C° 0.1 mm 9 mps 742 mmHg 84%
    12:00 +8°C° 0.1 mm 9 mps 742 mmHg 83%
    13:00 +8°C° 0.1 mm 9 mps 741 mmHg 82%
    14:00 +9°C° 0.1 mm 10 mps 741 mmHg 79%
    15:00 +9°C° 0.1 mm 10 mps 741 mmHg 76%
    16:00 +9°C° 0.1 mm 10 mps 740 mmHg 73%
    17:00 +9°C° 0.1 mm 10 mps 740 mmHg 72%
    18:00 +8°C° 0.1 mm 10 mps 740 mmHg 71%
    19:00 +8°C° 0.1 mm 10 mps 741 mmHg 70%
    20:00 +8°C° 0 mm 9 mps 741 mmHg 69%
    21:00 +7°C° 0 mm 8 mps 741 mmHg 68%
    22:00 +8°C° 0 mm 7 mps 742 mmHg 67%
    23:00 +6°C° 0 mm 7 mps 742 mmHg 68%

    26 October, Friday

    Time Temperature Precipitation Wind Pressure Humidity
    00:00 +7°C° 0 mm 6 mps 742 mmHg 69%
    01:00 +5°C° 0 mm 6 mps 742 mmHg 70%
    02:00 +5°C° 0 mm 6 mps 742 mmHg 71%
    03:00 +5°C° 0 mm 6 mps 742 mmHg 73%
    04:00 +6°C° 0 mm 5 mps 742 mmHg 75%
    05:00 +6°C° 0 mm 5 mps 742 mmHg 76%
    06:00 +6°C° 0 mm 5 mps 742 mmHg 77%
    07:00 +6°C° 0 mm 5 mps 742 mmHg 79%
    08:00 +7°C° 0 mm 5 mps 743 mmHg 75%
    09:00 +8°C° 0 mm 5 mps 743 mmHg 71%
    10:00 +9°C° 0 mm 5 mps 743 mmHg 67%
    11:00 +10°C° 0.3 mm 4 mps 742 mmHg 70%
    12:00 +10°C° 0.3 mm 4 mps 742 mmHg 73%
    13:00 +10°C° 0.3 mm 3 mps 742 mmHg 76%
    14:00 +8°C° 1.3 mm 4 mps 741 mmHg 80%
    15:00 +8°C° 1.3 mm 4 mps 741 mmHg 84%
    16:00 +8°C° 1.3 mm 4 mps 740 mmHg 88%
    17:00 +8°C° 0.6 mm 5 mps 740 mmHg 87%
    18:00 +8°C° 0.6 mm 5 mps 740 mmHg 86%
    19:00 +8°C° 0.6 mm 6 mps 739 mmHg 85%
    20:00 +8°C° 0.6 mm 6 mps 739 mmHg 85%
    21:00 +7°C° 0.6 mm 6 mps 738 mmHg 85%
    22:00 +7°C° 0.6 mm 6 mps 738 mmHg 85%
    23:00 +6°C° 0.5 mm 7 mps 738 mmHg 85%
    Show more